Location: *
(40.7190°N, 4.2480°W)
Time: 16:42:35
(UTC+00:00)

NOSS 3-1 (A) - Pass Details

Date: 18 February 2020
Orbit: 761 x 1452 km, 63.4° (Epoch: 26 March)

Event Time Altitude Azimuth Distance (km) Brightness Sun altitude
Exits shadow 04:44:07 32° 323° (NW) 2,029 4.9 -27.8°
Maximum altitude 04:48:20 85° 238° (WSW) 1,344 4.0 -27.1°
Drops below altitude 10° 04:57:07 10° 151° (SSE) 3,526 6.6 -25.4°
Sets 05:00:08 0° 151° (SSE) 4,527 7.3 -24.8°
